INSAT-3D

Last updated on Tue Sep 22 2026 00:02:53 GMT+0000 (Coordinated Universal Time)

1 39216U 13038B 26264.58605111 -.00000342 00000+0 00000+0 0 9991 2 39216 2.1671 81.2130 0001404 113.9363 145.7920 1.00268851 48045
UTC large
Height (km)
Speed (km/s)
/
Latitude / Longitude
Inclination (degrees)
Orbital Period (minutes)
Azimuth
Elevation
Range (km)
Doppler Factor

Next 0 passes for location: London (51.5072 / 0.1276)

No passes found over London.
INSAT-3D